Location: San Gennaro Vesuviano
(40.8833°N, 14.5333°E)
Time: 09:45:09
(UTC+00:00)

Ariane Rocket - Pass Details

Date: 22 April 2021
Orbit: 760 x 770 km, 98.7° (Epoch: 10 May)

Event Time Altitude Azimuth Distance (km) Brightness Sun altitude
Exits shadow 19:18:22 13° 171° (S) 2,060 4.8 -16.1°
Maximum altitude 19:22:50 78° 256° (WSW) 782 3.1 -16.8°
Drops below altitude 10° 19:27:54 10° 344° (NNW) 2,300 6.2 -17.6°
Sets 19:30:13 0° 346° (NNW) 3,229 7.0 -17.9°
